Buffalo, MN

3:23 AM CST on November 19, 2017 (GMT -0600)
Buffalo

Weather History for KCFE - September, 2013

Change the Weather History Date:

Monday, September 30, 2013

  Actual Average (KMIC) Record (KMIC)
Temperature  
Mean Temperature 68 °F -  
Max Temperature 79 °F 62 °F 82 °F (2002)
Min Temperature 56 °F 40 °F 32 °F (2003)
Cooling Degree Days 2    
Growing Degree Days 18 (Base 50)    
Moisture  
Dew Point 47 °F    
Average Humidity 51    
Maximum Humidity 66    
Minimum Humidity 32    
Precipitation  
Precipitation 0.00 in - - ()
Sea Level Pressure  
Sea Level Pressure 29.66 in    
Wind  
Wind Speed 9 mph (SSE)    
Max Wind Speed 14 mph    
Max Gust Speed 24 mph    
Visibility 10 miles    
Events      
Averages and records for this station are not official NWS values.
T = Trace of Precipitation, MM = Missing Value Source: NWS Daily Summary

Daily Weather History Graph

Daily Weather History Graph

Search for Another Location

Airport or City:

Trip Planner

Search our weather history database for the weather conditions in past years. The results will help you decide how hot, cold, wet, or windy it might be!

Date:

Astronomy

Sep. 30, 2013 Rise Set
Actual Time 7:12 AM CDT 6:57 PM CDT
Civil Twilight 6:43 AM CDT 7:26 PM CDT
Nautical Twilight 6:08 AM CDT 8:00 PM CDT
Astronomical Twilight 5:34 AM CDT 8:35 PM CDT
Moon 2:39 AM CDT (9/30) 4:37 PM CDT (9/30)
Length of Visible Light 12h 43m
Length of Day
11h 44m
Waning Crescent, 19% of the Moon is Illuminated
Sep 30
Waning Crescent
Oct 4
New
Oct 11
First Quarter
Oct 18
Full
Oct 26
Last Quarter

Hourly Weather History & Observations

Time (CDT) Temp. Dew Point Humidity Pressure Visibility Wind Dir Wind Speed Gust Speed Precip Events Conditions
12:16 AM 63.7 °F 42.8 °F 47% 29.78 in 10.0 mi SSE 9.2 mph 18.4 mph N/A   Clear
12:36 AM 62.6 °F 42.8 °F 48% 29.76 in 10.0 mi SSE 11.5 mph 19.6 mph N/A   Clear
12:56 AM 62.1 °F 43.0 °F 50% 29.76 in 10.0 mi SSE 9.2 mph - N/A   Clear
1:16 AM 62.1 °F 43.7 °F 51% 29.76 in 10.0 mi South 10.4 mph 19.6 mph N/A   Clear
1:36 AM 61.2 °F 43.3 °F 52% 29.76 in 10.0 mi SSE 9.2 mph 18.4 mph N/A   Clear
1:55 AM 60.6 °F 43.2 °F 53% 29.76 in 10.0 mi South 10.4 mph 16.1 mph N/A   Clear
2:16 AM 60.6 °F 43.3 °F 53% 29.74 in 10.0 mi SSE 9.2 mph 17.3 mph N/A   Clear
2:36 AM 60.6 °F 43.7 °F 54% 29.73 in 10.0 mi SSE 10.4 mph 17.3 mph N/A   Clear
2:56 AM 60.8 °F 43.7 °F 53% 29.72 in 10.0 mi SSE 11.5 mph 18.4 mph N/A   Clear
3:16 AM 61.0 °F 43.7 °F 53% 29.72 in 10.0 mi South 9.2 mph 20.7 mph N/A   Clear
3:36 AM 61.3 °F 43.9 °F 53% 29.71 in 10.0 mi SSE 11.5 mph 24.2 mph N/A   Clear
3:56 AM 61.9 °F 43.9 °F 52% 29.71 in 10.0 mi South 11.5 mph 21.9 mph N/A   Clear
4:16 AM 62.1 °F 43.9 °F 51% 29.71 in 10.0 mi South 11.5 mph 20.7 mph N/A   Clear
4:36 AM 60.3 °F 43.7 °F 54% 29.71 in 10.0 mi South 9.2 mph 16.1 mph N/A   Clear
4:56 AM 59.5 °F 44.1 °F 57% 29.69 in 10.0 mi SSE 9.2 mph 16.1 mph N/A   Clear
5:16 AM 58.6 °F 44.2 °F 59% 29.70 in 10.0 mi South 8.1 mph - N/A   Clear
5:36 AM 58.1 °F 44.6 °F 61% 29.69 in 10.0 mi SSE 8.1 mph - N/A   Clear
5:56 AM 57.6 °F 44.6 °F 62% 29.69 in 10.0 mi SSE 9.2 mph 16.1 mph N/A   Clear
6:16 AM 57.2 °F 44.8 °F 63% 29.68 in 10.0 mi South 9.2 mph - N/A   Clear
6:36 AM 57.0 °F 45.0 °F 64% 29.68 in 10.0 mi South 6.9 mph - N/A   Clear
6:56 AM 56.7 °F 45.1 °F 65% 29.68 in 10.0 mi SSE 8.1 mph - N/A   Clear
7:16 AM 56.7 °F 45.1 °F 65% 29.67 in 10.0 mi SSE 10.4 mph 17.3 mph N/A   Clear
7:36 AM 56.7 °F 45.5 °F 66% 29.68 in 10.0 mi South 9.2 mph - N/A   Clear
7:56 AM 56.8 °F 45.7 °F 66% 29.67 in 10.0 mi SSE 8.1 mph - N/A   Clear
8:16 AM 57.2 °F 45.9 °F 66% 29.69 in 10.0 mi South 9.2 mph - N/A   Clear
8:36 AM 57.6 °F 46.2 °F 66% 29.69 in 10.0 mi South 9.2 mph - N/A   Clear
8:56 AM 58.3 °F 46.6 °F 65% 29.68 in 10.0 mi SSE 5.8 mph - N/A   Clear
9:16 AM 59.5 °F 46.8 °F 63% 29.67 in 10.0 mi South 6.9 mph 17.3 mph N/A   Clear
9:36 AM 60.4 °F 46.9 °F 61% 29.67 in 10.0 mi South 6.9 mph 17.3 mph N/A   Clear
9:56 AM 62.1 °F 47.3 °F 58% 29.67 in 10.0 mi South 9.2 mph - N/A   Clear
10:16 AM 62.6 °F 47.3 °F 57% 29.67 in 10.0 mi South 11.5 mph 17.3 mph N/A   Clear
10:36 AM 64.4 °F 47.5 °F 54% 29.67 in 10.0 mi South 10.4 mph - N/A   Clear
10:56 AM 65.5 °F 47.8 °F 53% 29.67 in 10.0 mi South 10.4 mph - N/A   Clear
11:16 AM 66.2 °F 47.1 °F 50% 29.67 in 10.0 mi South 13.8 mph 20.7 mph N/A   Clear
11:36 AM 67.3 °F 48.0 °F 50% 29.67 in 10.0 mi South 9.2 mph - N/A   Clear
11:56 AM 68.4 °F 47.7 °F 48% 29.66 in 10.0 mi South 12.7 mph 18.4 mph N/A   Clear
12:16 PM 69.4 °F 47.5 °F 45% 29.67 in 10.0 mi South 12.7 mph 18.4 mph N/A   Clear
12:36 PM 70.7 °F 48.0 °F 44% 29.66 in 10.0 mi South 10.4 mph - N/A   Clear
12:56 PM 70.9 °F 47.5 °F 43% 29.66 in 10.0 mi South 10.4 mph 18.4 mph N/A   Clear
1:16 PM 70.9 °F 47.7 °F 44% 29.65 in 10.0 mi SSE 10.4 mph 18.4 mph N/A   Clear
1:36 PM 72.1 °F 48.7 °F 43% 29.64 in 10.0 mi South 13.8 mph 23.0 mph N/A   Clear
1:56 PM 72.5 °F 47.5 °F 41% 29.64 in 10.0 mi South 9.2 mph 18.4 mph N/A   Clear
2:16 PM 73.8 °F 47.8 °F 40% 29.63 in 10.0 mi South 12.7 mph 18.4 mph N/A   Clear
2:36 PM 74.7 °F 47.5 °F 38% 29.62 in 10.0 mi SSE 9.2 mph 16.1 mph N/A   Clear
2:56 PM 75.9 °F 48.4 °F 38% 29.62 in 10.0 mi South 8.1 mph 11.5 mph N/A   Clear
3:16 PM 76.6 °F 47.1 °F 35% 29.61 in 10.0 mi South 6.9 mph 16.1 mph N/A   Clear
3:36 PM 77.2 °F 46.4 °F 34% 29.61 in 10.0 mi South 11.5 mph 21.9 mph N/A   Clear
3:56 PM 77.9 °F 46.8 °F 33% 29.61 in 10.0 mi South 9.2 mph 18.4 mph N/A   Clear
4:16 PM 78.1 °F 46.8 °F 33% 29.60 in 10.0 mi South 10.4 mph 18.4 mph N/A   Clear
4:36 PM 78.8 °F 47.3 °F 33% 29.60 in 10.0 mi South 8.1 mph - N/A   Clear
4:55 PM 79.7 °F 47.7 °F 32% 29.59 in 10.0 mi South 10.4 mph - N/A   Clear
5:16 PM 78.8 °F 48.7 °F 35% 29.59 in 10.0 mi South 5.8 mph - N/A   Clear
5:36 PM 79.2 °F 47.1 °F 32% 29.59 in 10.0 mi South 8.1 mph - N/A   Clear
5:55 PM 78.3 °F 46.6 °F 33% 29.59 in 10.0 mi South 6.9 mph - N/A   Clear
6:16 PM 77.2 °F 47.5 °F 35% 29.60 in 10.0 mi SSE 4.6 mph - N/A   Clear
6:36 PM 75.2 °F 49.8 °F 41% 29.60 in 10.0 mi SSE 3.5 mph - N/A   Clear
6:55 PM 73.2 °F 50.2 °F 44% 29.60 in 10.0 mi SE 4.6 mph - N/A   Clear
7:16 PM 71.2 °F 50.7 °F 48% 29.61 in 10.0 mi SE 3.5 mph - N/A   Clear
7:36 PM 69.4 °F 50.9 °F 52% 29.61 in 10.0 mi SE 4.6 mph - N/A   Clear
7:56 PM 69.1 °F 51.1 °F 53% 29.61 in 10.0 mi SE 5.8 mph - N/A   Clear
8:16 PM 69.1 °F 50.9 °F 52% 29.61 in 10.0 mi SSE 5.8 mph - N/A   Clear
8:36 PM 68.4 °F 50.7 °F 53% 29.62 in 10.0 mi SSE 5.8 mph - N/A   Clear
8:55 PM 68.2 °F 50.7 °F 54% 29.62 in 10.0 mi SSE 3.5 mph - N/A   Clear
9:16 PM 67.5 °F 50.7 °F 55% 29.63 in 10.0 mi SSE 3.5 mph - N/A   Clear
9:36 PM 66.6 °F 50.9 °F 57% 29.63 in 10.0 mi SE 4.6 mph - N/A   Clear
9:55 PM 66.4 °F 51.1 °F 58% 29.63 in 10.0 mi SSE 5.8 mph - N/A   Clear
10:16 PM 65.7 °F 50.9 °F 59% 29.62 in 10.0 mi SSE 4.6 mph - N/A   Clear
10:36 PM 66.2 °F 50.9 °F 58% 29.63 in 10.0 mi SSE 5.8 mph - N/A   Clear
10:55 PM 66.4 °F 50.4 °F 56% 29.62 in 10.0 mi SSE 8.1 mph - N/A   Clear
11:16 PM 66.4 °F 50.4 °F 56% 29.62 in 10.0 mi SSE 8.1 mph - N/A   Clear
11:36 PM 66.4 °F 50.2 °F 56% 29.62 in 10.0 mi South 10.4 mph - N/A   Clear
11:56 PM 66.4 °F 50.2 °F 56% 29.62 in 10.0 mi South 9.2 mph - N/A   Clear